Regional Weather Roundup
Issued by NWS Wakefield, VA

Home | Current Version | Previous Version | Graphics & Text | Print | Product List | Glossary On
Versions: 1 2 3 4 5 6 7 8 9 10 11 12 13 14 15 16 17 18 19 20 21 22 23 24 25 26 27 28 29 30 31 32 33 34 35 36 37 38 39 40 41 42 43 44 45 46 47 48 49
000
ASUS41 KAKQ 011814
RWRAKQ

REGIONAL WEATHER ROUNDUP
NATIONAL WEATHER SERVICE WAKEFIELD VA
200 PM EDT TUE SEP 01 2015

Note: "fair" indicates few or no clouds below 12,000 feet with no
significant weather and/or obstructions to visibility. * = Denotes
station may not report precipitation (e.g., rain,snow,etc.),
thunder or fog.

VAZ042-051-052>054-056-011900-
NORTHERN VIRGINIA

CITY           SKY/WX    TMP DP  RH WIND       PRES   REMARKS
WASH NATIONAL  PTSUNNY   93  66  40 E3        30.05F HX  96
DULLES         MOSUNNY   89  66  46 NW9       30.07S
FORT BELVOIR   MOSUNNY   91  67  46 CALM      30.04F
QUANTICO       MOSUNNY   86  71  60 SW6       30.06F
FREDERICKSBRG* MOSUNNY   91  68  45 E5        30.04F HX  95
STAFFORD*      SUNNY     92  63  38 N5        30.10F
WARRENTON      PTSUNNY   90  70  52 N6        30.07F HX  95
CULPEPER*      SUNNY     89  68  51 NE5       30.08F
MANASSAS*      PTSUNNY   90  66  45 NW5       30.06F
LEESBURG*      MOSUNNY   90  70  51 NW6       30.08F HX  95
WINCHESTER     MOSUNNY   91  63  38 N5        30.08F
FRONT ROYAL*   FAIR      90  64  43 W3        30.07F
LURAY*         FAIR      91  61  35 CALM      30.08F
$$

VAZ048-049-060>072-079>083-011900-
CENTRAL AND SOUTH CENTRAL VIRGINIA

CITY           SKY/WX    TMP DP  RH WIND       PRES   REMARKS
RICHMOND       MOSUNNY   90  68  48 VRB6      30.06F
CHESTERFIELD*  FAIR      90  61  37 SE6       30.07F
PETERSBURG*    PTSUNNY   90  72  55 E8        30.07F HX  96
HANOVER        SUNNY     88  69  53 CALM      30.08F
TAPPAHANNOCK*  SUNNY     90  61  37 CALM      30.07S
QUINTON*       FAIR      88  68  52 NE5       30.06F
CHARLOTTSVILLE MOSUNNY   86  67  52 NE7       30.09F
GORDONSVILLE*  FAIR      89  66  47 CALM      30.06F
ORANGE*        PTSUNNY   90  63  40 NW5       30.08F
LOUISA*        MOSUNNY   91  66  43 E7        30.06F
BUMPASS*       FAIR      89  68  49 CALM      30.07F
FARMVILLE*     MOSUNNY   92  62  35 NE9       30.06F
CREWE*         FAIR     N/A N/A N/A CALM      30.07F
FORT PICKETT*  FAIR      89  67  48 SE5       30.07F
CHASE CITY*    FAIR      89  69  50 N6        30.08F
CLARKSVILLE*   FAIR      88  68  51 CALM      30.07F
SOUTH HILL*    MOSUNNY   85  69  58 CALM      30.13F
LAWRENCEVILLE* MOCLDY    86  72  62 CALM      30.07F
EMPORIA*       MOSUNNY   82  70  65 CALM      30.09F
$$

VAZ088>098-011900-
SOUTHEAST VIRGINIA

CITY           SKY/WX    TMP DP  RH WIND       PRES   REMARKS
NORFOLK        SUNNY     84  70  62 NE6       30.06F
VIRGINIA BEACH PTSUNNY   88  71  57 E6        30.05F
NORFOLK NAVAL  MOSUNNY   84  70  62 N8        30.07F
WEST POINT*    SUNNY     90  66  45 SW6       30.07F
SALUDA*        FAIR      84  71  63 SE6       30.06S
NEWPORT NEWS   PTSUNNY   85  69  58 VRB3      30.06F
LANGLEY AFB    SUNNY     85  69  58 VRB6      30.05F
FORT EUSTIS    MOSUNNY   85  68  55 SW6       30.05F
WILLIAMSBURG*  SUNNY     91  72  52 N3        30.07F HX  98
HR EXEC AP*      N/A     86  73  66 S3        30.08F
FRANKLIN*      PTSUNNY   83  70  64 SE6       30.07F
WAKEFIELD      MOSUNNY   87  69  54 CALM      30.07F
$$

VAZ020-022-025-037-045-011900-
WEST CENTRAL AND SOUTHWEST VIRGINIA

CITY           SKY/WX    TMP DP  RH WIND       PRES   REMARKS
STAUNTON*      MOSUNNY   87  66  49 NW8       30.13F
WAYNESBORO*    FAIR      86  65  48 E7        30.12F
HOT SPRINGS VA MOSUNNY   77  60  56 CALM      30.26F
LYNCHBURG      PTSUNNY   86  61  42 NE6       30.11F
DANVILLE       PTSUNNY   90  64  42 MISG      30.08F
SOUTH BOSTON*  FAIR      91  62  37 E8        30.07F
MARTINSVILLE   SUNNY     92  60  34 NE5       30.13F
ROANOKE        MOSUNNY   90  62  39 N6        30.13F
BLACKSBURG     CLOUDY    82  65  57 N5        30.21F
DUBLIN*        PTSUNNY   84  64  50 CALM      30.19F
MARION*        PTSUNNY   84  63  48 CALM      30.23F
HILLSVILLE*    PTSUNNY   79  64  60 NE6       30.21F
RICHLANDS*     FAIR      80  17   9 NW3       30.23S
WISE*          MOSUNNY   82  61  47 N6        30.24S
ABINGDON*      SUNNY     85  59  41 E5        30.18F
$$

MDZ021>025-VAZ099-100-011900-
SOUTHERN MARYLAND AND THE DELMARVA PENINSULA

CITY           SKY/WX    TMP DP  RH WIND       PRES   REMARKS
PATUXENT RIVER MOSUNNY   85  71  63 SE5       30.05F
BAY BRIDGE APT   N/A     86  68  54 W3        30.05F
LEONARDTOWN    NOT AVBL
DOVER          LGT RAIN  90  72  55 VRB6      30.02F HX  96
GEORGETOWN     SUNNY     91  69  48 CALM      30.03F HX  96
EASTON         MOSUNNY   91  70  49 N3        30.08F HX  97
CAMBRIDGE      SUNNY     91  70  49 NW5       30.04F HX  97
SALISBURY      MOSUNNY   88  68  51 CALM      30.03F
OCEAN CITY     SUNNY     84  73  69 S9        30.04F
WALLOPS ISLAND SUNNY     86  73  65 S10       30.05F
ACCOMACK*      PTSUNNY   81  75  83 W5        30.05F
$$

NCZ012>017-030>032-011900-
NORTH CENTRAL AND EASTERN NORTH CAROLINA

CITY           SKY/WX    TMP DP  RH WIND       PRES   REMARKS
ROANOKE RAPIDS FAIR      84  68  58 N3        30.07F
RALEIGH        MOSUNNY   88  65  46 CALM      30.08F
ELIZABETH CITY MOSUNNY   84  73  69 N6        30.06F
AHOSKIE*       MOSUNNY   80  71  73 CALM      30.08F
EDENTON*       PTSUNNY   81  70  69 W6        30.07F
CURRITUCK*     MOSUNNY   83  70  63 NE6       30.07S
KILL DEVIL HLS SUNNY     85  73  65 NE5       30.05F
MANTEO         PTSUNNY   80  73  78 E7        30.06F
CAPE HATTERAS  SUNNY     84  75  74 VRB6      30.05F
TARBORO*       FAIR      86  70  59 NE5       30.08F
GOLDSBORO      MOSUNNY   85  71  62 VRB2      30.06F
WASHINGTON     MOSUNNY   79  70  74 CALM      30.08F
GREENVILLE     MOSUNNY   82  72  69 CALM      30.09F
NEW BERN       CLOUDY    82  70  66 VRB6      30.08F
WILMINGTON     MOSUNNY   85  71  63 VRB6      30.07F
$$

VAZ048-011900-
ELSEWHERE

CITY           SKY/WX    TMP DP  RH WIND       PRES   REMARKS
HARRISBURG PA  MOSUNNY   88  63  43 W8        30.05S
BALTIMORE      MOSUNNY   90  66  45 NW6       30.04F
ANNAPOLIS      SUNNY     83  73  72 SE9       30.04F
ANDREWS AFB    MOSUNNY   91  67  45 SE6       30.04F
PHILADELPHIA   MOSUNNY   91  63  39 S7        30.03F
HENDERSON NC   MOSUNNY   88  63  43 NW5       30.08F
GREENSBORO     MOSUNNY   90  61  37 N5        30.10F
ROCKY MOUNT    MOSUNNY   88  69  53 CALM      30.08F
$$

VAZ100-011900-
MARINE

STATION/POSITION TIME  TEMP    WIND        PRES    WAVE   SWELL
                       AIR SEA DIR/SP/G            HT/PER HT/PER
                 (UTC) (F)     (DEG/KT/KT) (MB)    (FT/S) (FT/S)
BRANDYWINE LGT   1700   77 75  270/  3/  4 1018.1F
CAPE MAY NJ      1700   79 80  270/  5/  7 1017.5F
LEWES DE         1700   77 75   20/  4/  5 1017.7F
15NM E FENWICK I 1750   78 80  210/  4/  6 1017.8F   2/ 8   2/ 8
OCEAN-CITY-INLET 1700   80 77  190/  7/ 11 1017.1F
GOOSES REEF MD   1800   81 83     CALM     1018.8F
COVE POINT MD    1700   79      10/  2/  4 1018.8F
SOLOMONS ISLAND  1700      80                N/A
BISHOPS HEAD MD  1700   76 80  250/  7/  8 1017.3F
PINEY POINT MD   1705          350/  2/  3   N/A
POTOMAC MD       1800   78 82  170/  4/  6 1016.8F   0
CAMBRIDGE MD     1700   81 79  340/  8/  9 1016.9F
LEWISETTA VA     1700   80 80   60/  4/  5 1017.6F
RAPPAHANNOCK LGT 1700          260/  4/  4 1018.8F
STINGRAY PT      1800   79 83  170/  4/  4 1018.5F   0
YORK RVR RNG VA  1700   76     180/  4/  5 1018.0F
YORKTOWN VA      1700   79 81   80/  5/  6 1018.0F
JAMESTOWN VA     1800   81 84  170/  4/  6   N/A
DOMINION TERM VA 1700   78     230/  3/  4 1018.4F
KIPTOPEKE VA     1700      79  220/  5/  6   N/A
CHES BAY BRIDGE  1700   76 79  340/  3/  4 1018.1F
CAPE HENRY VA    1700   77     360/  5/  6   N/A
CHESAPEAKE LGHT  1700   76      20/  4/  4 1019.1F
WILLOUBY STN VA  1700   78      CALM  /  1 1019.5F
CAPE HENRY BUOY  1728      81                N/A     2/10
1ST LANDING BUOY 1800      80              1017.7F   1/ 4
CAPE CHARLES BUO 1726      80                N/A     2/10   2/10
OFFSHORE WE BUOY 1711      80                N/A     2/11   2/11
64NM E OF VA BCH 1750   78 79   30/  6/  6 1017.5F   2/ 8   2/ 8
DUCK PIER NC     1700   78 78   40/  6/  7 1017.6F
44100 DUCK FRF   1724      80                N/A     2/10
44056 DUCK FRF   1711      80                N/A     2/10
OREGON INLET NC  1700   79 79   20/  9/ 12 1017.9F
HATTERAS NC      1700   79 80  340/  8/  9 1017.8F
DIAMOND SHLS NC  1750   80 84  350/  6/  8 1017.7F   3/ 7   2/ 7
CAPE LOOKOUT NC  1800   82     260/  4/  7 1017.7F
$$


USA.gov is the U.S. government's official web portal to all federal, state and local government web resources and services.